Nellis AFB, NV

8:04 AM PDT on September 23, 2017 (GMT -0700)
Nellis Air Force Base

Weather History for KLSV - October, 2012

Change the Weather History Date:

Wednesday, October 17, 2012

  Actual Average Record
Temperature  
Mean Temperature 74 °F -  
Max Temperature 84 °F 80 °F 91 °F (2003)
Min Temperature 63 °F 53 °F 44 °F (2013)
Cooling Degree Days 8    
Growing Degree Days 24 (Base 50)    
Moisture  
Dew Point 37 °F    
Average Humidity 30    
Maximum Humidity 59    
Minimum Humidity 11    
Precipitation  
Precipitation 0.00 in - - ()
Sea Level Pressure  
Sea Level Pressure 29.93 in    
Wind  
Wind Speed 9 mph (NE)    
Max Wind Speed 18 mph    
Max Gust Speed 20 mph    
Visibility 10 miles    
Events      
Averages and records for this station are not official NWS values.
T = Trace of Precipitation, MM = Missing Value Source: NWS Daily Summary

Daily Weather History Graph

Daily Weather History Graph

Search for Another Location

Airport or City:

Trip Planner

Search our weather history database for the weather conditions in past years. The results will help you decide how hot, cold, wet, or windy it might be!

Date:

Astronomy

Oct. 17, 2012 Rise Set
Actual Time 6:49 AM PDT 6:00 PM PDT
Civil Twilight 6:23 AM PDT 6:26 PM PDT
Nautical Twilight 5:53 AM PDT 6:56 PM PDT
Astronomical Twilight 5:23 AM PDT 7:26 PM PDT
Moon 9:23 AM PDT (10/17) 7:46 PM PDT (10/17)
Length of Visible Light 12h 03m
Length of Day
11h 11m
Waxing Crescent, 8% of the Moon is Illuminated
Oct 17
Waxing Crescent
Oct 21
First Quarter
Oct 29
Full
Nov 6
Last Quarter
Nov 13
New

Hourly Weather History & Observations

Time (PDT) Temp. Dew Point Humidity Pressure Visibility Wind Dir Wind Speed Gust Speed Precip Events Conditions
12:55 AM 66.0 °F 47.3 °F 51% 29.83 in 10.0 mi ENE 11.5 mph - N/A   Clear
1:55 AM 67.8 °F 46.4 °F 46% 29.85 in 10.0 mi East 9.2 mph - N/A   Clear
2:55 AM 65.1 °F 47.5 °F 53% 29.86 in 10.0 mi Calm Calm - N/A   Clear
3:55 AM 63.3 °F 48.7 °F 59% 29.86 in 10.0 mi NE 5.8 mph - N/A   Clear
4:55 AM 67.1 °F 46.9 °F 48% 29.88 in 10.0 mi East 8.1 mph - N/A   Clear
5:55 AM 68.2 °F 45.9 °F 45% 29.90 in 10.0 mi ENE 12.7 mph - N/A   Clear
6:55 AM 68.9 °F 44.1 °F 41% 29.93 in 10.0 mi East 6.9 mph - N/A   Clear
7:55 AM 73.0 °F 41.4 °F 32% 29.95 in 10.0 mi NNW 8.1 mph 19.6 mph N/A   Clear
8:55 AM 73.6 °F 38.5 °F 28% 29.99 in 10.0 mi NE 12.7 mph - N/A   Clear
9:55 AM 75.9 °F 40.1 °F 28% 29.98 in 10.0 mi NE 18.4 mph - N/A   Clear
10:55 AM 77.7 °F 38.8 °F 25% 29.99 in 10.0 mi NE 15.0 mph - N/A   Clear
11:55 AM 80.1 °F 37.0 °F 21% 29.97 in 10.0 mi NE 15.0 mph - N/A   Clear
12:55 PM 81.9 °F 33.3 °F 17% 29.95 in 10.0 mi NE 11.5 mph - N/A   Clear
1:55 PM 83.1 °F 31.5 °F 15% 29.93 in 10.0 mi East 11.5 mph - N/A   Clear
2:55 PM 84.4 °F 23.0 °F 11% 29.91 in 10.0 mi NE 8.1 mph - N/A   Clear
3:55 PM 84.4 °F 23.2 °F 11% 29.91 in 10.0 mi NE 10.4 mph - N/A   Clear
4:55 PM 83.5 °F 27.1 °F 13% 29.91 in 10.0 mi ENE 10.4 mph - N/A   Clear
5:55 PM 80.2 °F 30.9 °F 17% 29.92 in 10.0 mi East 4.6 mph - N/A   Clear
6:55 PM 74.3 °F 33.1 °F 22% 29.95 in 10.0 mi NE 6.9 mph - N/A   Clear
7:55 PM 70.2 °F 35.1 °F 28% 29.96 in 10.0 mi North 6.9 mph - N/A   Clear
8:55 PM 70.3 °F 32.4 °F 25% 29.98 in 10.0 mi ENE 5.8 mph - N/A   Clear
9:55 PM 68.2 °F 30.6 °F 25% 30.00 in 10.0 mi East 5.8 mph - N/A   Clear
10:55 PM 70.9 °F 24.4 °F 18% 30.00 in 10.0 mi NE 5.8 mph - N/A   Clear
11:55 PM 65.8 °F 34.2 °F 31% 30.02 in 10.0 mi West 3.5 mph - N/A   Clear